Zurück zum Katalog

STARLINK-37245

AktivKommunikationVLEO
NORAD 68547·PAYLOAD·🇺🇸 United States

Gestartet Apr 2, 2026 von Cape Canaveral Space Force Station

Loading…

Nächste Überflüge (nächste 24 Stunden)

TLE

AktuellSource: CelesTrak SupGP

Epoche: Sep 14, 2026, 21:40 UTC

1 68547C 26070F   26257.90326389  .00009278  00000+0  27411-3 0  2577
2 68547  53.1579 200.0055 0001639  94.9579   4.6649 15.34387305    15

Verfolge STARLINK-37245 in Echtzeit mit AllMySat

Download on the App Store